Regional Weather Roundup
Issued by NWS

Home | Current Version | Previous Version | Graphics & Text | Print | Product List | Glossary On
Versions: 1 2 3 4 5 6 7 8 9 10 11 12 13 14 15 16 17 18 19 20 21 22 23 24 25 26 27 28 29 30 31 32 33 34 35 36 37 38 39 40 41 42 43 44 45 46 47 48 49 50
899
ASUS45 KBOU 270007
RWRCO

WEATHER ROUNDUP FOR COLORADO
NATIONAL WEATHER SERVICE DENVER/BOULDER CO
600 PM MDT WED JUL 26 2017

NOTE: "FAIR" INDICATES FEW OR NO CLOUDS BELOW 12000 FEET WITH NO
SIGNIFICANT WEATHER AND/OR OBSTRUCTIONS TO VISIBILITY.

COZ001>005-013-030-031-270100-
...NORTHWEST COLORADO...

CITY           SKY/WX    TMP DP  RH WIND       PRES   REMARKS
CRAIG          PTSUNNY   71  57  61 N7        30.27S
HAYDEN         FAIR      72  55  56 W8        30.29F
MEEKER         FAIR      78  55  44 W5        30.26F
RABBIT EARS PA FAIR      55  54  94 NW6       30.59S
STEAMBOAT SPGS FAIR      76  53  45 CALM      30.31S
WALDEN         FAIR      64  54  68 S7        30.42S
$$

COZ006>008-011-270100-
...WEST CENTRAL VALLEYS...

CITY           SKY/WX    TMP DP  RH WIND       PRES   REMARKS
GRAND JUNCTION FAIR      89  57  33 W8        30.12F
MONTROSE       FAIR      85  56  37 N13       30.19F
EAGLE          MOSUNNY   82  54  36 W15       30.26F
RIFLE          FAIR      85  55  35 W3        30.17F
DELTA          FAIR      92  50  24 W7        30.14F
NUCLA          FAIR      82  50  32 NW10      30.25S
$$

COZ017>023-064>068-270100-
...SOUTHWEST COLORADO...

CITY           SKY/WX    TMP DP  RH WIND       PRES   REMARKS
DURANGO        FAIR      84  47  27 SW10G18   30.24F
CORTEZ         FAIR      86  52  30 W9        30.19F
PAGOSA SPRINGS PTSUNNY   79  46  31 W3        30.33F
TELLURIDE      FAIR      66  53  63 CALM      30.49S THUNDER
WOLF CREEK PAS FAIR      55  48  76 SW12G22   30.72F
$$

COZ009-010-012-014-032>034-037-058>063-270100-
...CENTRAL COLORADO...

CITY           SKY/WX    TMP DP  RH WIND       PRES   REMARKS
ASPEN          FAIR      77  52  41 NW7       30.34F
BUENA VISTA    FAIR      78  46  32 SE15      30.32S
COPPER MTN     FAIR      63  45  51 NW14G20   30.69S THUNDER
BERTHOUD PASS  PTSUNNY   50  36  57 NW10      30.74R
COTTONWOOD PAS FAIR      79  36  21 CALM      30.49F
GUNNISON       FAIR      78  51  38 N8        30.32F
KREMMLING      PTSUNNY   77  55  47 N12G18    30.33S THUNDER
LEADVILLE      FAIR      65  45  48 NW5       30.47F
MONARCH PASS   FAIR      54  46  76 SW16      30.79F
SALIDA         FAIR      79  49  35 SW15G22   30.35F
SUNLIGHT       FAIR      57  52  82 SW5       30.64S
WILKERSON PASS FOG       54  52  94 E6G18     30.67R VSB 1
$$

COZ069>075-270100-
...SAN LUIS VALLEY/SANGRE DE CRISTO MOUNTAINS...

CITY           SKY/WX    TMP DP  RH WIND       PRES   REMARKS
ALAMOSA        TSTM      60  56  86 SW14G38   30.36R VSB 1
DEL NORTE      FAIR      77  50  38 N21       30.36F THUNDER
LA VETA PASS   NOT AVBL
SAGUACHE         N/A    N/A N/A N/A MISG        N/A
$$

COZ035-036-038>040-270100-
...NORTHERN COLORADO FRONT RANGE...

CITY           SKY/WX    TMP DP  RH WIND       PRES   REMARKS
DENVER INTL AP PTSUNNY   77  58  51 N15       30.21F
DMNS CITY PARK   N/A     76  57  53 N12G17    30.21S
AURORA         PTSUNNY   75  60  57 N13       30.24R
FRONT RANGE AP FAIR      79  59  50 NE12G26   30.23F
ERIE MUNI ARPT LGT RAIN  74  64  69 NW6       30.22S
BOULDER MUN AP LGT RAIN  73  63  68 NW3       30.23F
CENTENNIAL     PTSUNNY   76  59  55 N16       30.24F THUNDER
BROOMFIELD     LGT RAIN  73  63  68 N12       30.26S
FORT COLLINS   CLOUDY    70  61  73 NW23G30   30.24R
LONGMONT       FAIR      80  62  52 NW5       30.23F
$$

COZ041-046-047-076>085-087-088-270100-
...PIKES PEAK/PALMER DIVIDE AND SOUTHERN FOOTHILLS...

CITY           SKY/WX    TMP DP  RH WIND       PRES   REMARKS
COLO. SPRINGS  PTSUNNY   70  65  84 W8        30.27S
A. F. ACADEMY  MOSUNNY   68  64  86 CALM      30.28F
SCHRIEVER AFB  FAIR      74  60  61 NE10      30.25F
CHEYENNE MTN   FAIR      68  56  65 N15       30.26S
ELLICOTT       FAIR     N/A N/A N/A NE13      30.24S THUNDER
FALCON         LGT RAIN  69  61  75 N3        30.32S
FORT CARSON    FAIR      73  62  67 N12       30.23S
LIMON          FAIR      78  59  51 NE13      30.20S
MONUMENT HILL  CLOUDY    68  55  64 N17G26    30.35R
CANON CITY     MOSUNNY   84  61  45 NE18      30.15R
WALSENBURG     FAIR      77  59  53 S9        30.24R
TRINIDAD       FAIR      73  61  65 W8        30.22
$$

COZ042>045-048>051-090-091-270100-
...NORTHEAST COLORADO...

CITY           SKY/WX    TMP DP  RH WIND       PRES   REMARKS
GREELEY ARPT   FAIR      81  59  47 NE9       30.18F
AKRON          CLOUDY    80  57  45 NE13      30.18R
BURLINGTON     FAIR      84  64  50 NE16      30.12S
WRAY           NOT AVBL
YUMA           FAIR      79  55  44 NE12G18   30.14R
STERLING       FAIR      81  61  50 NE7       30.14S
HOLYOKE        FAIR      79  64  61 E13       30.14R
FORT MORGAN    PTSUNNY   81  54  39 NE12G17   30.18S
$$

COZ086-089-092>099-270100-
...SOUTHEAST COLORADO...

CITY           SKY/WX    TMP DP  RH WIND       PRES   REMARKS
PUEBLO         CLOUDY    77  62  59 N22G35    30.12R
LA JUNTA       FAIR      89  60  37 E12       30.07F
LAMAR          FAIR      87  65  47 E13       30.04F
SPRINGFIELD      N/A     89  58  34 E9        30.08S
$$




USA.gov is the U.S. government's official web portal to all federal, state and local government web resources and services.